STARLINK-5926, 55944

Orbit data source: Space-Track

STARLINK-5926, 55944 is a payload satellite owned by SpaceX/Seattle (US) in LEO that was launched on Fri, 17 Mar 2023 UTC via an FALCON 9 launch vehicle from the Air Force Western Test Range (AFWTR). Payload-class satellites include a variety of spacecraft equipped with specific instruments for various scientific and technological missions. These include communications satellites like Starlink; space stations such as the ISS; scientific satellites like the Hubble; Earth observation satellites from companies like Planet Labs, Umbra, and HawkEye 360; GPS; miniature CubeSats for education and research; and military/defense satellites.

Loading next visibility...
Identifier
55944, 2023-037AG
Orbit
LEO
Country
Flag of USUS
Related business
Manufacturer
SpaceX/Seattle
Mission
Operational Commercial Communications
Bus & Motor
STARLINK, Unknown motor
Mass
305 kg wet, ~290 kg dry
Launch date (UTC)
2023-03-17 (3 years ago)
Launch vehicle
FALCON 9
Launch site
Air Force Western Test Range (AFWTR)
Object type
Payload
Rocket body
Debris
Shape & HBR
Box + 1 Pan, 10.1 m
Radar Cross Section
11.087 m², Large (>1 m²)

Expand to show TLE details & history
Last TLE update: 16 hours ago

TLE from 16 hours ago
0 STARLINK-5926
1 55944U 23037AG  25349.84036490 -.00000145  00000-0 -43540-5 0  9992
2 55944  69.9997 135.7375 0002810 274.0619  86.0218 14.98331447151421
Epoch: 2025-12-15T20:10Z
TLE epoch observation values (Epoch: 2025-12-15T20:10:07.527Z)
Latitude
-0.0001°
Longitude
108.47295°
Altitude
574.34 km
Speed
7.574 km/s
True Right ascension
09h 02m 56s
True Declination
0° 00' 00"
Sunlit
Object was in full shadow at epoch
Visualization orbit readout
Latitude
Unknown
Longitude
Unknown
Altitude
Unknown
Speed
Unknown
Apparent Right ascension
Unknown
Apparent Declination
Unknown
Sunlit
N/A
Visualization observer readout
Local Sidereal Time
11:15:50
Azimuth
Unknown
Elevation
Unknown
Doppler factor
Unknown
Orbital elements
Apogee altitude
571.952 km
Perigee altitude
568.047 km
Semi-major axis
6,948.137 km
Eccentricity
0.00028
Inclination
69.9997°
RAAN
135.7375°
Arg. of periapsis
274.0619°
True anomaly
86.05392°
Mean anomaly
86.0218°
Eccentric anomaly
86.03786°
Mean motion
3.74749 °/min
Orbital period
96.06 mins
BSTAR
-0.000004354
Loading maneuver chart data...
Computing Atmospheric mass density...
Loading historical data...
Loading historical data...
Loading historical data...
Loading historical data...
Loading historical data...
Loading historical data...
Loading historical data...

Documentation

Showing up to 5 results
|